This is the latest recevied weather packets stored in our database for station/object CA3NEB-13. If no packets are shown the sender has not sent any weather packets the latest 10 day(s).
| Time | Temp. | Humidity | Pressure | Rain* | Wind** | Luminosity | Snow |
|---|---|---|---|---|---|---|---|
| 1787459752 | 18.33° C | 46% | 1013 hPa | - | - | - | - |
| 1787459154 | 18.33° C | 50% | 1013.1 hPa | - | - | - | - |
| 1787458552 | 18.33° C | 49% | 1013.3 hPa | - | - | - | - |
| 1787457953 | 18.89° C | 49% | 1013.3 hPa | - | - | - | - |
| 1787457353 | 18.89° C | 48% | 1013.3 hPa | - | - | - | - |
| 1787456753 | 18.89° C | 48% | 1013.2 hPa | - | - | - | - |
| 1787456153 | 18.89° C | 48% | 1013.3 hPa | - | - | - | - |
| 1787455553 | 19.44° C | 50% | 1013.1 hPa | - | - | - | - |
| 1787454953 | 19.44° C | 50% | 1013.1 hPa | - | - | - | - |
| 1787454352 | 19.44° C | 50% | 1012.9 hPa | - | - | - | - |
| 1787453753 | 19.44° C | 53% | 1012.7 hPa | - | - | - | - |
| 1787453153 | 20° C | 54% | 1012.5 hPa | - | - | - | - |
| 1787452553 | 20° C | 53% | 1012.5 hPa | - | - | - | - |
| 1787451952 | 20° C | 50% | 1012.6 hPa | - | - | - | - |
| 1787451352 | 20° C | 47% | 1012.7 hPa | - | - | - | - |
| 1787450753 | 20° C | 45% | 1012.8 hPa | - | - | - | - |
| 1787450153 | 20° C | 46% | 1012.8 hPa | - | - | - | - |
| 1787449553 | 20.56° C | 45% | 1013 hPa | - | - | - | - |
| 1787448949 | 20.56° C | 53% | 1013 hPa | - | - | - | - |
| 1787448814 | 20.56° C | 52% | 1013.1 hPa | - | - | - | - |
| 1787448215 | 20.56° C | 51% | 1012.9 hPa | - | - | - | - |
| 1787447614 | 20.56° C | 50% | 1012.9 hPa | - | - | - | - |
| 1787447015 | 20.56° C | 50% | 1012.9 hPa | - | - | - | - |
| 1787446414 | 20.56° C | 49% | 1012.8 hPa | - | - | - | - |
| 1787445814 | 20.56° C | 49% | 1012.6 hPa | - | - | - | - |
* Rain since midnight (hover to see other rain measurements)
** Current wind speed in m/s (hover to see current wind gust speed)